Previsão horária em Centralnyy-Kospashskiy

Hoje, 30 Julho, Sexta-feira

Tempo Temperatura Precipitação Vento Pressão Humidade
00:00 +12°C° 0.1 mm 1 m/s 719 mmHg 97%
01:00 +12°C° 0.1 mm 2 m/s 719 mmHg 97%
02:00 +12°C° 0.2 mm 1 m/s 719 mmHg 98%
03:00 +12°C° 0.2 mm 1 m/s 719 mmHg 98%
04:00 +12°C° 0.2 mm 1 m/s 719 mmHg 98%
05:00 +13°C° 0.9 mm 1 m/s 718 mmHg 99%
06:00 +13°C° 0.9 mm 1 m/s 718 mmHg 99%
07:00 +13°C° 0.9 mm 1 m/s 718 mmHg 99%
08:00 +13°C° 1.8 mm 1 m/s 717 mmHg 99%
09:00 +14°C° 1.8 mm 1 m/s 717 mmHg 99%
10:00 +14°C° 1.8 mm 1 m/s 716 mmHg 99%
11:00 +14°C° 1.9 mm 1 m/s 716 mmHg 99%
12:00 +14°C° 1.9 mm 1 m/s 716 mmHg 99%
13:00 +14°C° 1.9 mm 1 m/s 716 mmHg 99%
14:00 +15°C° 0.1 mm 1 m/s 717 mmHg 97%
15:00 +16°C° 0.1 mm 1 m/s 717 mmHg 94%
16:00 +18°C° 0.1 mm 1 m/s 717 mmHg 92%
17:00 +18°C° 0.6 mm 1 m/s 717 mmHg 94%
18:00 +16°C° 0.6 mm 1 m/s 717 mmHg 95%
19:00 +16°C° 0.6 mm 1 m/s 717 mmHg 97%
20:00 +14°C° 0.1 mm 0 m/s 717 mmHg 97%
21:00 +13°C° 0.1 mm 0 m/s 718 mmHg 98%
22:00 +12°C° 0.1 mm 0 m/s 718 mmHg 98%
23:00 +12°C° 0 mm 0 m/s 718 mmHg 98%

Amanhã, 31 Julho, Sábado

Tempo Temperatura Precipitação Vento Pressão Humidade
00:00 +12°C° 0 mm 0 m/s 719 mmHg 98%
01:00 +12°C° 0 mm 0 m/s 719 mmHg 99%
02:00 +12°C° 0 mm 0 m/s 719 mmHg 99%
03:00 +13°C° 0 mm 0 m/s 719 mmHg 99%
04:00 +13°C° 0 mm 0 m/s 720 mmHg 99%
05:00 +13°C° 0 mm 0 m/s 720 mmHg 98%
06:00 +13°C° 0 mm 0 m/s 720 mmHg 98%
07:00 +14°C° 0 mm 0 m/s 721 mmHg 98%
08:00 +16°C° 0 mm 1 m/s 721 mmHg 93%
09:00 +18°C° 0 mm 1 m/s 721 mmHg 88%
10:00 +19°C° 0 mm 1 m/s 721 mmHg 84%
11:00 +20°C° 0 mm 1 m/s 721 mmHg 75%
12:00 +21°C° 0 mm 2 m/s 721 mmHg 65%
13:00 +23°C° 0 mm 2 m/s 721 mmHg 56%
14:00 +23°C° 0 mm 2 m/s 721 mmHg 56%
15:00 +24°C° 0 mm 3 m/s 721 mmHg 57%
16:00 +24°C° 0 mm 3 m/s 720 mmHg 57%
17:00 +21°C° 0.3 mm 3 m/s 720 mmHg 68%
18:00 +20°C° 0.3 mm 3 m/s 720 mmHg 80%
19:00 +18°C° 0.3 mm 2 m/s 720 mmHg 91%
20:00 +17°C° 0 mm 2 m/s 720 mmHg 93%
21:00 +16°C° 0 mm 2 m/s 719 mmHg 95%
22:00 +15°C° 0 mm 2 m/s 719 mmHg 97%
23:00 +15°C° 0.1 mm 2 m/s 719 mmHg 98%

Depois de amanhã, 1 Agosto, Domingo

Tempo Temperatura Precipitação Vento Pressão Humidade
00:00 +15°C° 0.1 mm 2 m/s 718 mmHg 98%
01:00 +15°C° 0.1 mm 2 m/s 718 mmHg 98%
02:00 +15°C° 0.7 mm 2 m/s 718 mmHg 98%
03:00 +16°C° 0.7 mm 2 m/s 718 mmHg 99%
04:00 +16°C° 0.7 mm 2 m/s 718 mmHg 99%
05:00 +16°C° 0.1 mm 2 m/s 718 mmHg 98%
06:00 +16°C° 0.1 mm 2 m/s 719 mmHg 98%
07:00 +16°C° 0.1 mm 3 m/s 719 mmHg 97%
08:00 +17°C° 0.3 mm 3 m/s 719 mmHg 93%
09:00 +18°C° 0.3 mm 3 m/s 719 mmHg 89%
10:00 +19°C° 0.3 mm 3 m/s 719 mmHg 85%
11:00 +19°C° 0.7 mm 3 m/s 719 mmHg 84%
12:00 +19°C° 0.7 mm 4 m/s 720 mmHg 83%
13:00 +19°C° 0.7 mm 5 m/s 720 mmHg 83%
14:00 +19°C° 0.7 mm 4 m/s 720 mmHg 83%
15:00 +19°C° 0.7 mm 4 m/s 720 mmHg 84%
16:00 +19°C° 0.7 mm 4 m/s 721 mmHg 85%
17:00 +18°C° 0.3 mm 4 m/s 721 mmHg 86%
18:00 +17°C° 0.3 mm 4 m/s 721 mmHg 88%
19:00 +16°C° 0.3 mm 3 m/s 721 mmHg 90%
20:00 +14°C° 0 mm 3 m/s 721 mmHg 92%
21:00 +14°C° 0 mm 2 m/s 722 mmHg 95%
22:00 +13°C° 0 mm 1 m/s 722 mmHg 97%
23:00 +13°C° 0 mm 1 m/s 722 mmHg 98%

2 Agosto, Segunda-feira

Tempo Temperatura Precipitação Vento Pressão Humidade
00:00 +12°C° 0 mm 1 m/s 723 mmHg 98%
01:00 +12°C° 0 mm 1 m/s 723 mmHg 98%
02:00 +11°C° 0 mm 1 m/s 723 mmHg 98%
03:00 +11°C° 0 mm 1 m/s 723 mmHg 98%
04:00 +11°C° 0 mm 1 m/s 723 mmHg 98%
05:00 +12°C° 0 mm 1 m/s 724 mmHg 96%
06:00 +13°C° 0 mm 1 m/s 724 mmHg 93%
07:00 +14°C° 0 mm 1 m/s 725 mmHg 91%
08:00 +16°C° 0 mm 1 m/s 725 mmHg 81%
09:00 +18°C° 0 mm 2 m/s 725 mmHg 71%
10:00 +20°C° 0 mm 2 m/s 725 mmHg 61%
11:00 +21°C° 0 mm 3 m/s 725 mmHg 59%
12:00 +22°C° 0 mm 3 m/s 725 mmHg 56%
13:00 +23°C° 0 mm 4 m/s 725 mmHg 53%
14:00 +22°C° 0 mm 4 m/s 725 mmHg 58%
15:00 +21°C° 0 mm 3 m/s 725 mmHg 64%
16:00 +21°C° 0 mm 3 m/s 725 mmHg 69%
17:00 +20°C° 0.1 mm 3 m/s 725 mmHg 78%
18:00 +19°C° 0.1 mm 2 m/s 724 mmHg 87%
19:00 +18°C° 0.1 mm 2 m/s 724 mmHg 95%
20:00 +18°C° 0 mm 1 m/s 724 mmHg 96%
21:00 +18°C° 0 mm 1 m/s 724 mmHg 98%
22:00 +18°C° 0 mm 1 m/s 724 mmHg 99%
23:00 +16°C° 0 mm 1 m/s 724 mmHg 99%

3 Agosto, Terça-feira

Tempo Temperatura Precipitação Vento Pressão Humidade
00:00 +15°C° 0 mm 0 m/s 724 mmHg 99%
01:00 +15°C° 0 mm 0 m/s 724 mmHg 99%
02:00 +15°C° 0 mm 0 m/s 724 mmHg 99%
03:00 +15°C° 0 mm 0 m/s 725 mmHg 98%
04:00 +15°C° 0 mm 0 m/s 725 mmHg 98%
05:00 +16°C° 0 mm 0 m/s 725 mmHg 96%
06:00 +16°C° 0 mm 0 m/s 725 mmHg 95%
07:00 +18°C° 0 mm 1 m/s 725 mmHg 93%
08:00 +19°C° 0 mm 1 m/s 726 mmHg 88%
09:00 +20°C° 0 mm 1 m/s 726 mmHg 82%
10:00 +21°C° 0 mm 1 m/s 726 mmHg 77%
11:00 +23°C° 0 mm 1 m/s 726 mmHg 72%
12:00 +24°C° 0 mm 1 m/s 726 mmHg 67%
13:00 +25°C° 0 mm 1 m/s 726 mmHg 62%
14:00 +26°C° 0 mm 1 m/s 726 mmHg 61%
15:00 +26°C° 0 mm 1 m/s 726 mmHg 60%
16:00 +27°C° 0 mm 1 m/s 726 mmHg 58%
17:00 +26°C° 0 mm 1 m/s 725 mmHg 65%
18:00 +25°C° 0 mm 1 m/s 725 mmHg 73%
19:00 +24°C° 0 mm 1 m/s 725 mmHg 80%
20:00 +23°C° 0 mm 1 m/s 725 mmHg 84%
21:00 +22°C° 0 mm 1 m/s 725 mmHg 89%
22:00 +20°C° 0 mm 1 m/s 725 mmHg 93%
23:00 +20°C° 0 mm 1 m/s 725 mmHg 94%

4 Agosto, Quarta-feira

Tempo Temperatura Precipitação Vento Pressão Humidade
00:00 +20°C° 0 mm 1 m/s 725 mmHg 95%
01:00 +19°C° 0 mm 1 m/s 725 mmHg 96%
02:00 +19°C° 0 mm 1 m/s 725 mmHg 96%
03:00 +19°C° 0 mm 1 m/s 725 mmHg 95%
04:00 +19°C° 0 mm 1 m/s 725 mmHg 95%
05:00 +19°C° 0 mm 2 m/s 725 mmHg 89%
06:00 +20°C° 0 mm 2 m/s 725 mmHg 83%
07:00 +21°C° 0 mm 2 m/s 726 mmHg 77%
08:00 +24°C° 0 mm 2 m/s 726 mmHg 69%
09:00 +26°C° 0 mm 2 m/s 726 mmHg 62%
10:00 +27°C° 0 mm 3 m/s 727 mmHg 54%
11:00 +28°C° 0 mm 3 m/s 727 mmHg 52%
12:00 +29°C° 0 mm 3 m/s 727 mmHg 49%
13:00 +30°C° 0 mm 3 m/s 727 mmHg 46%
14:00 +30°C° 0 mm 2 m/s 727 mmHg 47%
15:00 +30°C° 0 mm 2 m/s 727 mmHg 47%
16:00 +30°C° 0 mm 2 m/s 727 mmHg 47%
17:00 +29°C° 0 mm 2 m/s 727 mmHg 57%
18:00 +27°C° 0 mm 1 m/s 727 mmHg 66%
19:00 +25°C° 0 mm 1 m/s 727 mmHg 75%
20:00 +24°C° 0.6 mm 1 m/s 727 mmHg 81%
21:00 +22°C° 0.6 mm 1 m/s 727 mmHg 86%
22:00 +18°C° 0.6 mm 0 m/s 727 mmHg 91%
23:00 +20°C° 0.3 mm 1 m/s 727 mmHg 93%
Mostrar mais

Necessitamos do seu Consentimento

A Meteoprog e os seus Fornecedores de Serviços podem armazenar e aceder a dados pessoais como cookies, identificadores do dispositivo ou outras tecnologias semelhantes existentes no seu dispositivo e processar estes dados para personalizar conteúdos e anúncios, assim como funcionalidades nas redes sociais e análise de tráfego.

  • Armazenar e/ou aceder a informações no seu dispositivo

    Os cookies, identificadores do dispositivo ou outras informações podem ser armazenados ou acedidos no seu dispositivo, para os fins acima indicados.

  • Anúncios e conteúdos personalizados, medição de anúncios e conteúdos, dados sobre o público-alvo e desenvolvimento de produtos

    Os anúncios e os conteúdos podem ser personalizados com base num perfil. Podem ser adicionados dados adicionais para uma maior personalização dos anúncios e dos conteúdos. A eficácia dos anúncios e dos conteúdos pode ser medida. Podem ser obtidas informações sobre o público que visualizou os anúncios e os conteúdos. Estes dados podem ser usados para desenvolver ou melhorar sistemas, softwares ou a experiência do utilizador.

Ao clicar em "Eu concordo”, permitirá o uso de cookies, identificadores do dispositivo e web beacons mencionados ou outras tecnologias semelhantes. As configurações do navegador do seu dispositivo podem ser alteradas.

Para certos fins, podem ser invocados interesses legítimos ao invés de consentimento. Pode ler mais informação sobre este assunto na nossa Política de Privacidade e Cookies.